Regional Weather Roundup
Issued by NWS

Home | Current Version | Previous Version | Text Only | Print | Product List | Glossary Off
Versions: 1 2 3 4 5 6 7 8 9 10 11 12 13 14 15 16 17 18 19 20 21 22 23 24 25 26 27 28 29 30 31 32 33 34 35 36 37 38 39 40 41 42 43 44 45 46 47 48 49 50

000
ASUS43 KBIS 240402
RWRND

NORTH DAKOTA REGIONAL WEATHER ROUNDUP
NATIONAL WEATHER SERVICE BISMARCK ND
1100 PM CDT SAT JUL 23 2016

NOTE: "FAIR" INDICATES FEW OR NO CLOUDS BELOW 12,000 FEET WITH NO
SIGNIFICANT WEATHER AND/OR OBSTRUCTIONS TO VISIBILITY.


NDZ001>003-009>011-017-240500-
NORTHWEST NORTH DAKOTA

CITY           SKY/WX    TMP DP  RH WIND       PRES   REMARKS
WILLISTON      CLEAR     65  56  72 NW10      29.95R
MINOT          CLEAR     71  57  61 W16       29.85R
MINOT AFB      CLEAR     67  59  76 W15       29.84R
$$

NDZ018>021-031>035-040>046-240500-
SOUTHWEST NORTH DAKOTA

CITY           SKY/WX    TMP DP  RH WIND       PRES   REMARKS
BISMARCK       CLEAR     73  56  54 NW9       29.89R
DICKINSON      CLEAR     61  52  72 W7        29.97R
GARRISON         N/A     63  58  83 NW9       29.88R
HETTINGER ARPT CLEAR     67  46  47 NW10      29.99R
$$

NDZ004>008-012>016-024-026-027-054-240500-
NORTHEAST NORTH DAKOTA

CITY           SKY/WX    TMP DP  RH WIND       PRES   REMARKS
GRAND FORKS    CLEAR     67  65  93 S5        29.72R
GRND FRKS AFB  CLEAR     68  67  99 W7        29.73R
DEVILS LAKE    CLEAR     70  59  68 W14       29.79R
$$

NDZ022-023-025-028>030-036>039-047>053-240500-
SOUTHEAST NORTH DAKOTA

CITY           SKY/WX    TMP DP  RH WIND       PRES   REMARKS
FARGO          CLOUDY    76  71  85 NW3       29.76R
JAMESTOWN      CLEAR     68  61  78 W8        29.80R
$$




USA.gov is the U.S. government's official web portal to all federal, state and local government web resources and services.